Weather reports worldwide

Advertisment
Brownsville/Int., United States of America (72250): temperature & dewpoint: 11.08.2018 15:00:00 - 17.08.2018 15:00:00 (CDT)Brownsville/Int., United States of America (72250): wind speed & gusts: 11.08.2018 15:00:00 - 17.08.2018 15:00:00 (CDT)Brownsville/Int., United States of America (72250): wind direction: 11.08.2018 15:00:00 - 17.08.2018 15:00:00 (CDT)Brownsville/Int., United States of America (72250): reduced air pressure: 11.08.2018 15:00:00 - 17.08.2018 15:00:00 (CDT)Brownsville/Int., United States of America (72250): visibility: 11.08.2018 15:00:00 - 17.08.2018 15:00:00 (CDT)Brownsville/Int., United States of America (72250): precipitation: 11.08.2018 15:00:00 - 17.08.2018 15:00:00 (CDT)
Date & Time tt [°C] td [°C] ff [km/h] ff [kn] fx [km/h] fx [kn] dd ppp [hPa] vv [km] rr [mm]
17.08.2018 15:00:00 36,1 22,8 28 15 - - SSE 1016,5 16 -
17.08.2018 14:00:00 36,1 22,8 22 12 - - SE 1016,6 16 -
17.08.2018 13:00:00 35,6 22,8 21 11 - - SSE 1017,0 16 0,0
17.08.2018 12:00:00 35,6 21,1 24 13 - - S 1017,3 16 -
17.08.2018 11:00:00 34,4 22,2 28 15 - - SSE 1017,3 16 -
17.08.2018 10:00:00 32,2 24,4 24 13 - - SE 1017,4 16 -
17.08.2018 09:00:00 29,4 25,6 16 9 - - SSE 1017,3 16 -
17.08.2018 08:00:00 26,7 26,1 13 7 - - SSE 1016,8 16 -
17.08.2018 07:00:00 25,6 25,0 11 6 - - SSE 1016,9 16 0,0
17.08.2018 06:00:00 26,1 25,6 8 4 - - S 1017,0 16 -
17.08.2018 05:00:00 26,1 25,6 8 4 - - SSE 1016,9 16 -
17.08.2018 04:00:00 26,7 25,6 11 6 - - SSE 1016,7 16 -
17.08.2018 03:00:00 27,2 25,6 11 6 - - SSE 1017,1 16 -
17.08.2018 02:00:00 27,8 25,6 11 6 - - SE 1017,5 16 -
17.08.2018 01:00:00 28,3 25,0 15 8 - - SE 1017,5 16 0,0
17.08.2018 00:00:00 28,3 25,0 15 8 - - SSE 1017,6 16 -
16.08.2018 23:00:00 28,9 25,0 15 8 - - SE 1017,4 16 -
16.08.2018 22:00:00 28,9 25,6 16 9 - - SE 1016,6 16 -
16.08.2018 21:00:00 29,4 24,4 21 11 - - SE 1016,1 16 -
16.08.2018 20:00:00 30,6 23,9 28 15 - - SSE 1015,8 16 -
16.08.2018 19:00:00 31,7 23,9 28 15 48 26 SSE 1015,7 16 0,0
16.08.2018 18:00:00 33,3 23,9 34 18 - - SSE 1015,6 16 -
16.08.2018 17:00:00 34,4 23,3 35 19 50 27 SE 1015,8 16 -
16.08.2018 16:00:00 35,0 22,2 37 20 54 29 SE 1016,0 16 -
16.08.2018 15:00:00 36,1 21,7 35 19 50 27 SSE 1016,3 16 -
16.08.2018 14:00:00 36,1 22,8 37 20 54 29 SSE 1016,4 16 -
16.08.2018 13:00:00 36,1 22,8 26 14 48 26 SSE 1016,8 16 -
16.08.2018 12:00:00 35,0 24,4 28 15 - - SSE 1016,9 16 -
16.08.2018 11:00:00 34,4 25,0 31 17 - - SSE 1016,7 16 -
16.08.2018 10:00:00 31,7 25,0 26 14 - - S 1016,5 16 -
16.08.2018 09:00:00 30,0 26,7 18 10 - - SSE 1016,2 16 -
16.08.2018 08:00:00 27,2 26,7 11 6 - - SSE 1015,8 16 -
16.08.2018 07:00:00 26,7 26,1 9 5 - - SSE 1015,3 16 0,0
16.08.2018 06:00:00 27,2 26,1 13 7 - - S 1014,8 16 -
16.08.2018 05:00:00 27,8 26,7 11 6 - - S 1014,5 16 -
16.08.2018 04:00:00 28,3 26,7 15 8 - - S 1014,6 16 -
16.08.2018 03:00:00 28,3 26,7 16 9 - - S 1014,7 16 -
16.08.2018 02:00:00 28,9 27,2 22 12 - - SE 1015,1 10 -
16.08.2018 01:00:00 28,9 26,7 16 9 - - SSE 1015,1 16 0,0
16.08.2018 00:00:00 29,4 26,7 22 12 - - SE 1015,1 16 -
15.08.2018 23:00:00 29,4 26,7 18 10 - - SE 1015,0 16 -
15.08.2018 22:00:00 29,4 26,7 21 11 - - SE 1014,4 16 -
15.08.2018 21:00:00 30,0 26,1 21 11 - - SE 1013,7 16 -
15.08.2018 20:00:00 30,6 25,0 28 15 - - SE 1013,5 16 -
15.08.2018 19:00:00 31,7 24,4 29 16 - - SE 1013,2 16 -
15.08.2018 18:00:00 32,8 23,9 29 16 - - SE 1013,0 16 -
15.08.2018 17:00:00 33,9 24,4 31 17 50 27 SE 1013,1 16 -
15.08.2018 16:00:00 34,4 23,3 35 19 - - SE 1013,2 16 -
15.08.2018 15:00:00 35,6 24,4 37 20 - - SSE 1013,7 16 -
15.08.2018 14:00:00 35,0 24,4 31 17 48 26 SSE 1014,1 16 0,0
15.08.2018 13:00:00 31,1 25,6 26 14 48 26 S 1014,7 16 0,8
15.08.2018 12:00:00 33,3 24,4 29 16 48 26 SSE 1015,0 16 -
15.08.2018 11:00:00 32,8 23,9 31 17 - - SSE 1015,1 16 -
15.08.2018 10:00:00 31,1 24,4 26 14 - - SSE 1014,9 16 -
15.08.2018 09:00:00 30,6 26,1 21 11 - - SSE 1014,8 16 -
15.08.2018 08:00:00 27,8 25,6 13 7 - - SSE 1014,3 16 -
15.08.2018 07:00:00 26,7 25,0 11 6 - - SSE 1013,7 16 0,0
15.08.2018 06:00:00 26,7 25,6 11 6 - - SSE 1013,4 16 -
15.08.2018 05:00:00 27,2 25,6 13 7 - - SSE 1013,3 16 -
15.08.2018 04:00:00 27,2 25,6 13 7 - - SSE 1013,6 16 -
15.08.2018 03:00:00 27,8 25,6 15 8 - - SSE 1013,9 16 -
15.08.2018 02:00:00 27,2 25,6 15 8 - - SSE 1014,3 16 -
15.08.2018 01:00:00 28,3 25,6 11 6 - - SE 1014,4 16 0,0
15.08.2018 00:00:00 28,3 25,6 16 9 - - SE 1014,4 16 -
14.08.2018 23:00:00 28,3 25,6 13 7 - - SE 1014,0 16 -
14.08.2018 22:00:00 28,9 25,0 16 9 - - SE 1013,3 16 -
14.08.2018 21:00:00 29,4 24,4 22 12 - - SE 1012,8 16 -
14.08.2018 20:00:00 30,0 23,9 26 14 - - SE 1012,3 16 -
14.08.2018 19:00:00 31,7 23,3 35 19 - - SE 1012,2 16 0,0
14.08.2018 18:00:00 32,8 22,8 28 15 - - SE 1012,2 16 -
14.08.2018 17:00:00 34,4 22,8 31 17 - - SE 1012,4 16 -
14.08.2018 16:00:00 33,9 23,3 31 17 48 26 SSE 1012,7 16 -
14.08.2018 15:00:00 34,4 22,8 26 14 50 27 SSE 1013,3 16 -
14.08.2018 14:00:00 35,6 23,3 29 16 48 26 S 1013,7 16 -
14.08.2018 13:00:00 35,6 22,8 34 18 - - SSE 1014,4 16 -
14.08.2018 12:00:00 33,3 22,8 28 15 - - S 1014,5 16 0,0
14.08.2018 11:00:00 31,1 24,4 29 16 - - SSE 1014,6 16 0,0
14.08.2018 10:00:00 30,6 24,4 24 13 - - S 1014,2 16 -
14.08.2018 09:00:00 30,0 25,6 16 9 - - S 1014,1 16 -
14.08.2018 08:00:00 27,8 25,0 11 6 - - SSE 1013,9 16 -
14.08.2018 07:00:00 26,7 25,0 13 7 - - SSE 1013,4 16 0,0
14.08.2018 06:00:00 27,2 25,0 15 8 - - SE 1013,3 16 -
14.08.2018 05:00:00 26,7 25,0 5 3 - - SSE 1013,7 16 -
14.08.2018 04:00:00 27,2 25,0 13 7 - - SSE 1014,1 16 -
14.08.2018 03:00:00 27,2 25,6 16 9 - - SSE 1014,4 16 -
14.08.2018 02:00:00 28,3 25,6 21 11 - - SE 1014,7 16 -
14.08.2018 01:00:00 28,3 25,6 18 10 - - SE 1015,3 16 0,0
14.08.2018 00:00:00 28,3 25,6 15 8 - - ESE 1015,5 16 -
13.08.2018 23:00:00 28,9 25,6 16 9 - - ESE 1015,2 16 -
13.08.2018 22:00:00 28,9 25,6 16 9 - - ESE 1014,3 16 -
13.08.2018 21:00:00 29,4 25,6 18 10 - - SE 1013,6 16 -
13.08.2018 20:00:00 30,0 25,0 22 12 - - SE 1012,9 16 -
13.08.2018 19:00:00 31,7 23,9 29 16 - - SE 1012,9 16 0,0
13.08.2018 18:00:00 33,9 22,8 31 17 - - SSE 1013,2 16 -
13.08.2018 17:00:00 34,4 22,2 26 14 - - SE 1013,4 16 -
13.08.2018 16:00:00 35,0 22,2 34 18 - - SE 1014,2 16 -
13.08.2018 15:00:00 35,6 22,8 28 15 50 27 SSE 1015,0 16 -
13.08.2018 14:00:00 35,6 22,2 29 16 52 28 SSE 1015,4 16 -
13.08.2018 13:00:00 35,0 22,2 37 20 54 29 SSE 1015,9 16 0,0
13.08.2018 12:00:00 34,4 22,2 29 16 50 27 SE 1016,2 16 -
13.08.2018 11:00:00 33,9 23,3 34 18 - - SSE 1016,3 16 -
13.08.2018 10:00:00 32,2 23,3 34 18 - - SSE 1016,3 16 -
13.08.2018 09:00:00 30,0 25,6 26 14 - - SSE 1016,1 16 -
13.08.2018 08:00:00 27,8 25,6 15 8 - - SSE 1015,9 16 -
13.08.2018 07:00:00 27,2 26,1 16 9 - - SE 1015,5 16 0,0
13.08.2018 06:00:00 26,7 26,1 11 6 - - SE 1015,3 16 -
13.08.2018 05:00:00 26,7 25,6 9 5 - - SSE 1015,3 16 -
13.08.2018 04:00:00 26,7 25,6 9 5 - - SSE 1015,3 16 -
13.08.2018 03:00:00 27,8 26,1 16 9 - - SSE 1015,1 16 -
13.08.2018 02:00:00 28,3 26,7 21 11 - - SSE 1016,0 16 -
13.08.2018 01:00:00 28,9 27,2 16 9 - - SE 1016,2 16 0,0
13.08.2018 00:00:00 27,8 26,1 11 6 - - SE 1016,3 16 -
12.08.2018 23:00:00 27,8 25,0 5 3 - - SE 1016,1 16 -
12.08.2018 22:00:00 27,8 25,0 11 6 - - SSE 1014,9 16 -
12.08.2018 21:00:00 28,3 24,4 15 8 - - SSE 1014,0 16 -
12.08.2018 20:00:00 29,4 23,3 24 13 - - SE 1013,2 16 -
12.08.2018 19:00:00 31,7 22,8 29 16 - - SE 1013,1 16 -
12.08.2018 18:00:00 32,2 22,8 28 15 - - SSE 1013,0 16 -
12.08.2018 17:00:00 29,4 23,3 18 10 - - SSE 1013,3 16 0,0
12.08.2018 16:00:00 26,1 23,3 18 10 74 40 SSE 1014,7 16 0,8
12.08.2018 15:00:00 35,0 25,0 34 18 54 29 SE 1014,8 16 -
12.08.2018 14:00:00 35,0 24,4 35 19 54 29 SSE 1015,3 16 -
12.08.2018 13:00:00 35,0 24,4 34 18 48 26 SE 1016,1 16 0,0
12.08.2018 12:00:00 33,3 25,0 28 15 48 26 SE 1016,2 16 -
12.08.2018 11:00:00 33,9 25,0 28 15 - - SSE 1016,1 16 -
12.08.2018 10:00:00 31,7 24,4 29 16 - - SSE 1016,0 16 -
12.08.2018 09:00:00 30,0 26,1 24 13 - - SSE 1015,5 16 -
12.08.2018 08:00:00 28,3 26,1 11 6 - - SE 1015,1 16 -
12.08.2018 07:00:00 28,3 26,1 11 6 - - SE 1014,7 16 0,0
12.08.2018 06:00:00 28,3 26,1 13 7 - - SE 1014,4 16 -
12.08.2018 05:00:00 28,3 26,1 15 8 - - SE 1014,3 16 -
12.08.2018 04:00:00 28,3 26,1 13 7 - - SSE 1014,6 16 -
12.08.2018 03:00:00 27,8 25,6 8 4 - - SE 1014,7 16 -
12.08.2018 02:00:00 27,8 25,6 15 8 - - SE 1014,8 16 -
12.08.2018 01:00:00 27,8 25,0 13 7 - - SE 1015,3 16 0,0
12.08.2018 00:00:00 27,8 25,0 13 7 - - SE 1015,1 16 -
11.08.2018 23:00:00 27,8 24,4 15 8 - - SE 1014,8 16 -
11.08.2018 22:00:00 27,8 24,4 15 8 - - SE 1013,9 16 -
11.08.2018 21:00:00 27,8 23,3 9 5 - - SSE 1013,3 16 -
11.08.2018 20:00:00 28,9 24,4 16 9 - - SE 1012,9 16 -
11.08.2018 19:00:00 30,0 24,4 29 16 - - SE 1012,1 16 0,0
11.08.2018 18:00:00 31,7 24,4 31 17 48 26 SSE 1012,6 16 -
11.08.2018 17:00:00 32,8 23,9 26 14 48 26 SE 1013,3 16 -
11.08.2018 16:00:00 33,3 23,9 31 17 52 28 SE 1013,8 16 -
11.08.2018 15:00:00 33,9 22,8 28 15 - - S 1014,0 16 -

tt = temperature
td = dewpoint
ff = wind speed
fx = gusts
dd = wind direction
ppp = reduced air pressure
vv = visibility
rr = precipitation

Next stations